Location: Street
(51.1247°N, 2.7429°W)
Time: 02:47:27
(UTC+00:00)

deb Explorer IX - Pass Details

Date: 07 December 2020
Orbit: 536 x 1104 km, 38.8° (Epoch: 20 January)

Event Time Altitude Azimuth Distance (km) Brightness Sun altitude
Rises 15:05:15 0° 245° (WSW) 3,872 ? 6.0°
Reaches altitude 10° 15:08:28 10° 234° (SW) 2,867 ? 5.7°
Maximum altitude 15:14:11 28° 179° (S) 1,768 ? 5.0°
Drops below altitude 10° 15:19:23 10° 123° (ESE) 2,584 ? 4.5°
Sets 15:22:09 0° 112° (ESE) 3,428 ? 4.2°
